Eindhoven, Netherlands

2:56 PM CEST on August 17, 2017 (GMT +0200)
Eindhoven Air Base

Weather History for EHEH - December, 2012

Change the Weather History Date:

Tuesday, December 18, 2012

  Actual Average Record
Temperature  
Mean Temperature 40 °F -  
Max Temperature 43 °F 41 °F 55 °F (2014)
Min Temperature 38 °F 31 °F 21 °F (2002)
Degree Days  
Heating Degree Days 24    
Moisture  
Dew Point 41 °F    
Average Humidity 99    
Maximum Humidity 100    
Minimum Humidity 93    
Precipitation  
Precipitation 0.00 in - - ()
Sea Level Pressure  
Sea Level Pressure 29.89 in    
Wind  
Wind Speed 5 mph ()    
Max Wind Speed 9 mph    
Max Gust Speed -    
Visibility 3.5 miles    
Events Rain , Thunderstorm    
Averages and records for this station are not official NWS values.
T = Trace of Precipitation, MM = Missing Value Source: Averaged Metar Reports

Daily Weather History Graph

Daily Weather History Graph

Search for Another Location

Airport or City:

Trip Planner

Search our weather history database for the weather conditions in past years. The results will help you decide how hot, cold, wet, or windy it might be!

Date:

Astronomy

Dec. 18, 2012 Rise Set
Actual Time 8:39 AM CET 4:30 PM CET
Civil Twilight 7:59 AM CET 5:10 PM CET
Nautical Twilight 7:16 AM CET 5:53 PM CET
Astronomical Twilight 6:35 AM CET 6:34 PM CET
Moon 11:35 AM CET (12/18) 11:19 PM CET (12/18)
Length of Visible Light 9h 11m
Length of Day
7h 50m
Waxing Crescent, 32% of the Moon is Illuminated
Dec 18
Waxing Crescent
Dec 20
First Quarter
Dec 28
Full
Jan 5
Last Quarter
Jan 11
New

Hourly Weather History & Observations

Time (CET) Temp. Windchill Dew Point Humidity Pressure Visibility Wind Dir Wind Speed Gust Speed Precip Events Conditions
1:14 AM 41.0 °F 35.8 °F 41.0 °F 100% 29.74 in 5.0 mi SSW 8.1 mph - N/A   Mostly Cloudy
1:21 AM 41.0 °F 35.2 °F 39.2 °F 93% 29.74 in 5.0 mi SSW 9.2 mph - N/A   Overcast
1:25 AM 41.0 °F 35.2 °F 39.2 °F 93% 29.74 in 5.0 mi SSW 9.2 mph - N/A   Overcast
1:55 AM 39.2 °F 33.6 °F 39.2 °F 100% 29.74 in 5.0 mi SSW 8.1 mph - N/A   Mist
2:16 AM 39.2 °F 34.2 °F 39.2 °F 100% 29.74 in 4.3 mi SSW 6.9 mph - N/A   Scattered Clouds
2:20 AM 39.2 °F 34.2 °F 39.2 °F 100% 29.74 in 5.0 mi SSW 6.9 mph - N/A   Partly Cloudy
2:25 AM 39.2 °F 34.2 °F 39.2 °F 100% 29.74 in 5.0 mi SSW 6.9 mph - N/A   Mist
2:29 AM 39.2 °F 34.2 °F 39.2 °F 100% 29.74 in 4.3 mi SSW 6.9 mph - N/A   Mist
2:34 AM 39.2 °F 34.2 °F 39.2 °F 100% 29.74 in 5.0 mi SSW 6.9 mph - N/A   Mist
2:39 AM 39.2 °F 34.2 °F 39.2 °F 100% 29.74 in 4.3 mi SSW 6.9 mph - N/A   Partly Cloudy
2:43 AM 39.2 °F 33.6 °F 39.2 °F 100% 29.74 in 5.0 mi SSW 8.1 mph - N/A   Partly Cloudy
2:47 AM 39.2 °F 33.6 °F 39.2 °F 100% 29.74 in 4.3 mi SSW 8.1 mph - N/A   Mist
2:48 AM 39.2 °F 34.2 °F 39.2 °F 100% 29.74 in 5.0 mi South 6.9 mph - N/A   Mist
2:55 AM 39.2 °F 34.2 °F 39.2 °F 100% 29.74 in 5.0 mi South 6.9 mph - N/A   Partly Cloudy
3:04 AM 39.2 °F 35.0 °F 39.2 °F 100% 29.74 in 4.3 mi South 5.8 mph - N/A   Partly Cloudy
3:05 AM 39.2 °F 35.0 °F 37.4 °F 93% 29.74 in 5.0 mi South 5.8 mph - N/A   Partly Cloudy
3:14 AM 39.2 °F 35.9 °F 37.4 °F 93% 29.74 in 4.3 mi South 4.6 mph - N/A   Mostly Cloudy
3:20 AM 39.2 °F 35.0 °F 39.2 °F 100% 29.77 in 5.0 mi SSW 5.8 mph - N/A   Mostly Cloudy
3:25 AM 39.2 °F 35.0 °F 37.4 °F 93% 29.77 in 5.0 mi SSW 5.8 mph - N/A   Mostly Cloudy
3:38 AM 39.2 °F 35.0 °F 39.2 °F 100% 29.77 in 5.0 mi SSW 5.8 mph - N/A   Overcast
3:55 AM 39.2 °F 35.0 °F 39.2 °F 100% 29.77 in 5.0 mi South 5.8 mph - N/A   Overcast
4:00 AM 39 °F - 39 °F 100% 29.78 in 6 mi South 4.5 mph - -   Mist
4:25 AM 39.2 °F 35.0 °F 39.2 °F 100% 29.77 in 5.0 mi South 5.8 mph - N/A   Overcast
4:29 AM 39.2 °F 35.0 °F 39.2 °F 100% 29.77 in 5.0 mi South 5.8 mph - N/A   Mostly Cloudy
4:33 AM 39.2 °F 35.0 °F 39.2 °F 100% 29.77 in 5.0 mi South 5.8 mph - N/A   Mostly Cloudy
4:35 AM 39.2 °F 35.0 °F 39.2 °F 100% 29.77 in 5.0 mi South 5.8 mph - N/A   Mostly Cloudy
4:42 AM 39.2 °F 35.0 °F 39.2 °F 100% 29.77 in 5.0 mi South 5.8 mph - N/A   Mostly Cloudy
4:46 AM 39.2 °F 35.9 °F 39.2 °F 100% 29.77 in 4.3 mi South 4.6 mph - N/A   Overcast
4:55 AM 39.2 °F 35.9 °F 39.2 °F 100% 29.77 in 5.0 mi SSW 4.6 mph - N/A   Overcast
4:59 AM 39.2 °F 37.0 °F 39.2 °F 100% 29.77 in 5.0 mi SSW 3.5 mph - N/A   Overcast
5:12 AM 39.2 °F 37.0 °F 39.2 °F 100% 29.77 in 5.0 mi South 3.5 mph - N/A   Mostly Cloudy
5:25 AM 39.2 °F 37.0 °F 39.2 °F 100% 29.77 in 4.3 mi South 3.5 mph - N/A   Overcast
5:45 AM 39.2 °F 35.9 °F 39.2 °F 100% 29.77 in 4.3 mi SSW 4.6 mph - N/A   Partly Cloudy
5:46 AM 41.0 °F 37.1 °F 39.2 °F 93% 29.77 in 4.3 mi SSW 5.8 mph - N/A   Partly Cloudy
5:55 AM 41.0 °F 37.1 °F 39.2 °F 93% 29.77 in 4.3 mi South 5.8 mph - N/A   Partly Cloudy
5:56 AM 41.0 °F 37.1 °F 39.2 °F 93% 29.77 in 2.5 mi South 5.8 mph - N/A Rain Light Rain
6:00 AM 41.0 °F 38.0 °F 39.2 °F 93% 29.77 in - South 4.6 mph - N/A Rain Light Rain
6:10 AM 41.0 °F 38.0 °F 39.2 °F 93% 29.77 in 3.7 mi South 4.6 mph - N/A   Overcast
6:18 AM 41.0 °F 38.0 °F 39.2 °F 93% 29.77 in 3.7 mi South 4.6 mph - N/A   Overcast
6:25 AM 41.0 °F 38.0 °F 39.2 °F 93% 29.77 in 3.7 mi South 4.6 mph - N/A   Overcast
6:26 AM 41.0 °F 38.0 °F 39.2 °F 93% 29.80 in 4.3 mi South 4.6 mph - N/A   Overcast
6:33 AM 41.0 °F 38.0 °F 39.2 °F 93% 29.80 in 5.0 mi South 4.6 mph - N/A   Mostly Cloudy
6:39 AM 41.0 °F 38.0 °F 41.0 °F 100% 29.80 in 5.0 mi South 4.6 mph - N/A   Overcast
6:55 AM 41.0 °F 37.1 °F 39.2 °F 93% 29.80 in 4.3 mi South 5.8 mph - N/A   Overcast
7:00 AM 40 °F - 40 °F 100% 29.81 in 4 mi South 6.7 mph - - Rain Rain
7:18 AM 39.2 °F 35.0 °F 39.2 °F 100% 29.80 in 3.7 mi South 5.8 mph - N/A   Overcast
7:25 AM 39.2 °F 35.9 °F 39.2 °F 100% 29.80 in 3.7 mi SSW 4.6 mph - N/A   Overcast
7:47 AM 39.2 °F 35.9 °F 39.2 °F 100% 29.80 in 3.1 mi SSW 4.6 mph - N/A   Overcast
7:55 AM 39.2 °F 35.0 °F 39.2 °F 100% 29.80 in 3.1 mi SSW 5.8 mph - N/A   Overcast
7:59 AM 39.2 °F 35.0 °F 39.2 °F 100% 29.83 in 3.1 mi SSW 5.8 mph - N/A   Overcast
8:09 AM 41.0 °F 35.8 °F 41.0 °F 100% 29.83 in 3.7 mi SSW 8.1 mph - N/A   Overcast
8:25 AM 41.0 °F 35.8 °F 41.0 °F 100% 29.83 in 4.3 mi SSW 8.1 mph - N/A   Overcast
8:31 AM 41.0 °F 36.4 °F 41.0 °F 100% 29.83 in 3.7 mi SSW 6.9 mph - N/A   Overcast
8:55 AM 41.0 °F 36.4 °F 41.0 °F 100% 29.83 in 3.7 mi SSW 6.9 mph - N/A   Overcast
9:25 AM 41.0 °F 35.8 °F 41.0 °F 100% 29.83 in 4.3 mi SSW 8.1 mph - N/A   Overcast
9:44 AM 41.0 °F 35.2 °F 41.0 °F 100% 29.86 in 4.3 mi SSW 9.2 mph - N/A   Overcast
9:45 AM 41.0 °F 35.8 °F 41.0 °F 100% 29.86 in 5.0 mi SSW 8.1 mph - N/A   Overcast
9:55 AM 41.0 °F 35.8 °F 41.0 °F 100% 29.86 in 4.3 mi SSW 8.1 mph - N/A   Overcast
9:57 AM 41.0 °F 35.8 °F 41.0 °F 100% 29.86 in 4.3 mi SSW 8.1 mph - N/A   Mostly Cloudy
10:00 AM 41 °F - 40 °F 97% 29.88 in 4 mi SSW 6.7 mph - -   Mist
10:00 AM 41.0 °F 36.4 °F 41.0 °F 100% 29.86 in 4.3 mi SSW 6.9 mph - N/A   Overcast
10:05 AM 41.0 °F 36.4 °F 41.0 °F 100% 29.86 in 4.3 mi SSW 6.9 mph - N/A   Overcast
10:09 AM 41.0 °F 36.4 °F 41.0 °F 100% 29.86 in 4.3 mi SSW 6.9 mph - N/A   Mostly Cloudy
10:25 AM 41.0 °F 36.4 °F 41.0 °F 100% 29.86 in 5.0 mi SW 6.9 mph - N/A   Mostly Cloudy
10:33 AM 41.0 °F 35.8 °F 41.0 °F 100% 29.86 in 4.3 mi SW 8.1 mph - N/A   Overcast
10:37 AM 41.0 °F 36.4 °F 41.0 °F 100% 29.86 in 5.0 mi SW 6.9 mph - N/A   Mostly Cloudy
10:43 AM 41.0 °F 36.4 °F 41.0 °F 100% 29.86 in 5.0 mi SW 6.9 mph - N/A Thunderstorm Partly Cloudy
10:55 AM 42.8 °F 38.6 °F 41.0 °F 93% 29.89 in 5.0 mi SW 6.9 mph - N/A   Overcast
10:59 AM 42.8 °F 38.6 °F 41.0 °F 93% 29.89 in 5.0 mi SW 6.9 mph - N/A   Overcast
11:06 AM 42.8 °F 38.6 °F 41.0 °F 93% 29.89 in 4.3 mi SW 6.9 mph - N/A   Overcast
11:19 AM 42.8 °F 38.6 °F 41.0 °F 93% 29.89 in 5.0 mi SW 6.9 mph - N/A   Overcast
11:25 AM 42.8 °F 38.6 °F 41.0 °F 93% 29.89 in 5.0 mi SW 6.9 mph - N/A   Overcast
11:55 AM 42.8 °F 38.6 °F 41.0 °F 93% 29.89 in 5.0 mi SW 6.9 mph - N/A   Overcast
12:00 PM 42.8 °F 39.3 °F 41.0 °F 93% 29.89 in 5.6 mi SW 5.8 mph - N/A   Overcast
12:01 PM 42.8 °F 39.3 °F 42.8 °F 100% 29.89 in 5.6 mi WSW 5.8 mph - N/A   Overcast
12:20 PM 42.8 °F 38.6 °F 41.0 °F 93% 29.89 in 4.3 mi SW 6.9 mph - N/A   Overcast
12:25 PM 42.8 °F 38.0 °F 41.0 °F 93% 29.89 in 5.0 mi SW 8.1 mph - N/A   Overcast
12:29 PM 42.8 °F 38.0 °F 41.0 °F 93% 29.89 in - WSW 8.1 mph - N/A   Overcast
12:33 PM 42.8 °F 38.0 °F 41.0 °F 93% 29.89 in - SW 8.1 mph - N/A   Heavy Drizzle
12:34 PM 42.8 °F 38.0 °F 41.0 °F 93% 29.89 in 3.7 mi SW 8.1 mph - N/A   Drizzle
12:41 PM 42.8 °F 38.6 °F 41.0 °F 93% 29.89 in 3.7 mi SW 6.9 mph - N/A   Mostly Cloudy
12:55 PM 42.8 °F 38.6 °F 42.8 °F 100% 29.89 in 3.7 mi SW 6.9 mph - N/A Rain Light Rain
1:00 PM 43 °F - 42 °F 94% 29.92 in 4 mi SW 6.7 mph - - Rain Light Rain Showers
1:01 PM 42.8 °F 38.6 °F 42.8 °F 100% 29.89 in 3.7 mi SW 6.9 mph - N/A   Overcast
1:25 PM 42.8 °F 40.1 °F 42.8 °F 100% 29.92 in 3.1 mi SW 4.6 mph - N/A   Overcast
1:28 PM 42.8 °F 40.1 °F 42.8 °F 100% 29.92 in - SSW 4.6 mph - N/A   Overcast
1:39 PM 42.8 °F 40.1 °F 42.8 °F 100% 29.92 in 3.1 mi SSW 4.6 mph - N/A Rain Light Rain
1:43 PM 42.8 °F 40.1 °F 42.8 °F 100% 29.92 in 3.1 mi SW 4.6 mph - N/A Rain Light Rain
1:47 PM 42.8 °F 40.1 °F 42.8 °F 100% 29.92 in - SW 4.6 mph - N/A   Mostly Cloudy
1:48 PM 42.8 °F 40.1 °F 42.8 °F 100% 29.92 in 3.1 mi SW 4.6 mph - N/A   Mostly Cloudy
1:55 PM 42.8 °F 40.1 °F 42.8 °F 100% 29.92 in 3.1 mi SW 4.6 mph - N/A   Overcast
2:25 PM 42.8 °F 39.3 °F 42.8 °F 100% 29.92 in - SW 5.8 mph - N/A   Overcast
2:44 PM 42.8 °F 41.1 °F 42.8 °F 100% 29.92 in - West 3.5 mph - N/A   Overcast
2:48 PM 42.8 °F 41.1 °F 42.8 °F 100% 29.92 in - West 3.5 mph - N/A   Overcast
2:51 PM 42.8 °F 41.1 °F 42.8 °F 100% 29.92 in 3.1 mi West 3.5 mph - N/A   Overcast
2:55 PM 42.8 °F - 42.8 °F 100% 29.92 in - West 2.3 mph - N/A   Overcast
3:02 PM 42.8 °F - 42.8 °F 100% 29.92 in - SW 2.3 mph - N/A   Overcast
3:25 PM 42.8 °F - 42.8 °F 100% 29.95 in 1.2 mi SSW 2.3 mph - N/A Rain Light Rain
3:28 PM 42.8 °F - 42.8 °F 100% 29.95 in 1.3 mi South 2.3 mph - N/A Rain Light Rain
3:29 PM 42.8 °F - 42.8 °F 100% 29.95 in 1.3 mi South 2.3 mph - N/A Rain Light Rain
3:55 PM 42.8 °F - 42.8 °F 100% 29.95 in 1.3 mi South 2.3 mph - N/A   Overcast
4:00 PM 43 °F - 42 °F 97% 29.98 in 1 mi South 2.2 mph - - Rain Rain
4:25 PM 42.8 °F - 42.8 °F 100% 29.98 in 1.2 mi South 2.3 mph - N/A   Drizzle
4:55 PM 42.8 °F - 42.8 °F 100% 29.98 in 1.3 mi SW 2.3 mph - N/A   Overcast
5:25 PM 42.8 °F - 42.8 °F 100% 30.01 in 1.8 mi SW 2.3 mph - N/A   Overcast
5:39 PM 42.8 °F - 42.8 °F 100% 30.01 in - WSW 2.3 mph - N/A   Overcast
5:40 PM 42.8 °F 41.1 °F 42.8 °F 100% 30.01 in 2.2 mi WSW 3.5 mph - N/A   Overcast
5:47 PM 42.8 °F 41.1 °F 42.8 °F 100% 30.01 in - WSW 3.5 mph - N/A   Mostly Cloudy
5:51 PM 42.8 °F 41.1 °F 42.8 °F 100% 30.01 in - WSW 3.5 mph - N/A   Overcast
5:55 PM 42.8 °F - 42.8 °F 100% 30.01 in - WSW 2.3 mph - N/A   Overcast
6:05 PM 42.8 °F - 42.8 °F 100% 30.01 in 2.5 mi WSW 2.3 mph - N/A   Overcast
6:12 PM 42.8 °F - 42.8 °F 100% 30.01 in 2.2 mi West 2.3 mph - N/A   Overcast
6:25 PM 42.8 °F - 42.8 °F 100% 30.01 in - WSW 2.3 mph - N/A   Overcast
6:55 PM 42.8 °F 41.1 °F 42.8 °F 100% 30.04 in 1.8 mi SW 3.5 mph - N/A   Overcast
7:00 PM 42 °F - 42 °F 100% 30.04 in 2 mi SW 4.5 mph - -   Mist
7:12 PM 42.8 °F 41.1 °F 42.8 °F 100% 30.04 in 1.8 mi SW 3.5 mph - N/A   Overcast
7:13 PM 42.8 °F 41.1 °F 42.8 °F 100% 30.04 in 1.8 mi SSW 3.5 mph - N/A   Overcast
7:25 PM 42.8 °F 41.1 °F 42.8 °F 100% 30.04 in 1.8 mi SSW 3.5 mph - N/A   Overcast
7:55 PM 42.8 °F - 42.8 °F 100% 30.04 in 1.9 mi SSW 2.3 mph - N/A   Overcast
8:18 PM 42.8 °F - 42.8 °F 100% 30.04 in 1.8 mi South 2.3 mph - N/A   Overcast
8:25 PM 42.8 °F - 42.8 °F 100% 30.04 in 1.7 mi SSW 2.3 mph - N/A   Overcast
8:44 PM 42.8 °F - 42.8 °F 100% 30.04 in 1.6 mi SW 1.2 mph - N/A   Overcast
8:45 PM 42.8 °F - 42.8 °F 100% 30.04 in 1.6 mi SW 1.2 mph - N/A   Overcast
8:55 PM 42.8 °F - 42.8 °F 100% 30.04 in 1.7 mi SW 1.2 mph - N/A   Mostly Cloudy
8:59 PM 42.8 °F - 42.8 °F 100% 30.04 in 1.6 mi SSW 2.3 mph - N/A   Overcast
9:17 PM 41.0 °F 39.0 °F 41.0 °F 100% 30.04 in 1.9 mi South 3.5 mph - N/A   Overcast
9:25 PM 41.0 °F 39.0 °F 41.0 °F 100% 30.06 in 1.7 mi South 3.5 mph - N/A   Overcast
9:39 PM 41.0 °F - 41.0 °F 100% 30.06 in 1.7 mi SW 2.3 mph - N/A   Overcast
9:43 PM 41.0 °F - 41.0 °F 100% 30.06 in 1.5 mi WSW 2.3 mph - N/A   Overcast
9:55 PM 41.0 °F - 41.0 °F 100% 30.06 in 1.5 mi West 1.2 mph - N/A   Overcast
10:00 PM 41 °F - 41 °F 100% 30.09 in 1 mi WNW 2.2 mph - -   Mist
10:02 PM 41.0 °F - 41.0 °F 100% 30.06 in 1.6 mi West 1.2 mph - N/A   Overcast
10:06 PM 41.0 °F - 41.0 °F 100% 30.06 in 1.6 mi WNW 1.2 mph - N/A   Overcast
10:25 PM 41.0 °F - 41.0 °F 100% 30.06 in 1.5 mi WSW 1.2 mph - N/A   Overcast
10:55 PM 42.8 °F 41.1 °F 42.8 °F 100% 30.09 in 1.7 mi WSW 3.5 mph - N/A   Overcast
11:07 PM 41.0 °F - 41.0 °F 100% 30.09 in 1.6 mi West 2.3 mph - N/A   Overcast
11:25 PM 41.0 °F - 41.0 °F 100% 30.09 in 1.4 mi West 1.2 mph - N/A   Overcast
11:32 PM 41.0 °F - 41.0 °F 100% 30.09 in 0.9 mi West 1.2 mph - N/A   Overcast
11:36 PM 41.0 °F - 41.0 °F 100% 30.09 in 1.2 mi West 1.2 mph - N/A   Overcast
11:49 PM 41.0 °F - 41.0 °F 100% 30.09 in 1.3 mi West 2.3 mph - N/A   Overcast
11:55 PM 41.0 °F - 41.0 °F 100% 30.09 in 0.7 mi West 1.2 mph - N/A   Overcast